Location: Errabaliem
(16.8108°N, 80.4255°E)
Time: 15:40:16
(UTC+00:00)

CBERS-1 - Pass Details

Date: 05 August 2024
Orbit: 766 x 775 km, 98.8° (Epoch: 12 September)

Event Time Altitude Azimuth Distance (km) Brightness Sun altitude
Rises 22:48:18 0° 17° (NNE) 3,232 7.9 -21.2°
Reaches altitude 10° 22:50:38 10° 20° (NNE) 2,303 7.1 -20.7°
Maximum altitude 22:55:40 66° 102° (ESE) 835 4.3 -19.6°
Drops below altitude 10° 23:00:41 10° 184° (S) 2,295 6.2 -18.5°
Enters shadow 23:00:55 - 184° (S) 2,388 6.3 -18.5°
